Location: Krakow
(50.0830°N, 19.9170°E)
Time: 10:08:56
(UTC+01:00)

Transit 2A - Pass Details

Date: 16 February 2023
Orbit: 591 x 964 km, 66.7° (Epoch: 21 March)

Event Time Altitude Azimuth Distance (km) Brightness Sun altitude
Rises 22:01:48 0° 322° (NW) 3,515 10.2 -45.6°
Reaches altitude 10° 22:04:15 10° 322° (NW) 2,613 9.3 -45.9°
Enters shadow 22:05:19 16° 321° (NW) 2,233 8.9 -46.0°
Maximum altitude 22:10:26 81° 237° (WSW) 969 - -46.5°
Drops below altitude 10° 22:16:49 10° 150° (SSE) 2,696 - -47.1°
Sets 22:19:22 0° 150° (SSE) 3,633 - -47.4°
